Regional Weather Roundup
Issued by NWS Goodland, KS

Home | Current Version | Previous Version | Graphics & Text | Print | Product List | Glossary On
Versions: 1 2 3 4 5 6 7 8 9 10 11 12 13 14 15 16 17 18 19 20 21 22 23 24 25 26 27 28 29 30 31 32 33 34 35 36 37 38 39 40 41 42 43 44 45 46 47 48 49 50
000
ASUS43 KGLD 241959
RWRGLD

GOODLAND FORECAST AREA HOURLY WEATHER ROUNDUP
NATIONAL WEATHER SERVICE GOODLAND KS
200 PM MDT SUN JUL 24 2016

...OFFICIAL OBSERVATIONS...

CITY           SKY/WX    TMP DP  RH WIND       PRES   REMARKS
GOODLAND KS    SUNNY     91  57  31 SE17      30.10S
HILL CITY KS   SUNNY     88  68  51 NE10G18   30.04S
IMPERIAL NEB   MOSUNNY   86  54  33 SE24      30.07F
MCCOOK NEB     SUNNY     88  57  34 E20       30.06F
AKRON CO       SUNNY     83  59  44 SE20G29   30.15F
BURLINGTON CO  SUNNY     91  55  29 E17       30.13S
LIMON CO       SUNNY     88  51  28 SE10G21   30.17F
$$

...UNOFFICIAL OBSERVATIONS...

CITY           SKY/WX    TMP DP  RH WIND       PRES   REMARKS
COLBY KS       SUNNY     91  63  38 E17G23    30.09S
LENORA KS        N/A     90  32  12 MISG        N/A
NORTON KS      SUNNY     88  48  25 NE20G28   30.05S
YUMA CO          N/A     83  59  44 E15         N/A
$$




USA.gov is the U.S. government's official web portal to all federal, state and local government web resources and services.